Regional Weather Roundup
Issued by NWS

Home | Current Version | Previous Version | Text Only | Print | Product List | Glossary Off
Versions: 1 2 3 4 5 6 7 8 9 10 11 12 13 14 15 16 17 18 19 20 21 22 23 24 25 26 27 28 29 30 31 32 33 34 35 36 37 38 39 40 41 42 43 44 45 46 47 48 49 50

000
ASUS43 KLMK 230710
RWRKY
KENTUCKY REGIONAL WEATHER ROUNDUP
NATIONAL WEATHER SERVICE LOUISVILLE KY
300 AM EDT THU OCT 23 2014

NOTE "FAIR" INDICATES FEW OR NO CLOUDS BELOW 12,000 FEET
WITH NO SIGNIFICANT WEATHER AND/OR OBSTRUCTIONS TO VISIBILITY.

KYZ001>023-026-027-061>063-070>075-230800-
WESTERN AND SOUTH CENTRAL KENTUCKY

CITY           SKY/WX    TMP DP  RH WIND       PRES   REMARKS
PADUCAH        CLEAR     39  37  92 CALM      30.22S FOG
HENDERSON      CLEAR    N/A N/A N/A E3        30.24S
OWENSBORO      CLEAR     42  40  93 CALM      30.25S
HOPKINSVILLE   CLEAR     45  42  91 E3        30.22S
BOWLING GREEN  CLEAR     40  38  93 CALM      30.24S FOG
GLASGOW        CLEAR     38  38 100 CALM      30.23S
$$

KYZ024-025-028>034-038-045-046-053-230800-
NORTH CENTRAL KENTUCKY

CITY           SKY/WX    TMP DP  RH WIND       PRES   REMARKS
LOUISVILLE/SDF CLEAR     45  40  82 VRB3      30.26S
LOUISVILLE/LOU CLEAR     43  38  82 CALM      30.27R
FORT KNOX      CLEAR     39  38  94 N5        30.24S
$$

KYZ035>037-039>044-047>052-055>060-089>105-230800-
NORTHEAST KENTUCKY

CITY           SKY/WX    TMP DP  RH WIND       PRES   REMARKS
LEXINGTON      CLOUDY    50  39  66 NE10      30.25S
COVINGTON      CLOUDY    46  39  76 W3        30.26R
FRANKFORT      CLOUDY    48  41  76 E5        30.25R
$$

KYZ054-064>069-076>088-106>120-230800-
SOUTHEAST KENTUCKY

CITY           SKY/WX    TMP DP  RH WIND       PRES   REMARKS
JACKSON        CLOUDY    47  39  74 CALM      30.22S
LONDON         CLOUDY    49  41  74 CALM      30.22F
SOMERSET       CLOUDY    46  37  71 E3        30.24S
MIDDLESBORO    CLOUDY    48  43  85 CALM      30.22S
MONTICELLO     MOSUNNY   36  35  96 CALM      30.24S
$$




USA.gov is the U.S. government's official web portal to all federal, state and local government web resources and services.